Summary – Current weather conditions in Chulilla

Tuesday, 19 November 2019
Puesta del sol a las Salida del sol a las
Hora Temperatures Pressure Wind Intensidad lluvia
23:54 7.3 °C 1012 mb 8 km/h 0.00 mm
23:44 7.3 °C 1013 mb 8 km/h 0.00 mm
23:34 7.4 °C 1013 mb 3 km/h 0.00 mm
23:24 7.6 °C 1013 mb 8 km/h 0.00 mm
23:14 7.7 °C 1013 mb 3 km/h 0.00 mm
23:04 7.8 °C 1013 mb 6 km/h 0.00 mm
22:54 7.9 °C 1013 mb 3 km/h 0.00 mm
22:44 7.8 °C 1013 mb 2 km/h 0.00 mm
22:34 7.4 °C 1013 mb 10 km/h 0.00 mm
22:24 8.1 °C 1013 mb 0 km/h 0.00 mm
22:14 8.9 °C 1013 mb 0 km/h 0.00 mm
22:04 9.1 °C 1013 mb 0 km/h 0.00 mm
21:54 8.9 °C 1013 mb 5 km/h 0.00 mm
21:44 8.6 °C 1013 mb 2 km/h 0.00 mm
21:34 8.4 °C 1013 mb 3 km/h 0.00 mm
21:24 8.6 °C 1013 mb 0 km/h 0.00 mm
21:14 8.7 °C 1013 mb 0 km/h 0.00 mm
21:04 8.4 °C 1013 mb 0 km/h 0.00 mm
20:54 8.6 °C 1013 mb 5 km/h 0.00 mm
20:44 8.6 °C 1012 mb 0 km/h 0.00 mm
20:34 8.8 °C 1012 mb 6 km/h 0.00 mm
20:24 8.9 °C 1012 mb 5 km/h 0.00 mm
20:14 9.1 °C 1013 mb 5 km/h 0.00 mm
20:04 9.3 °C 1012 mb 3 km/h 0.00 mm
19:54 9.6 °C 1012 mb 5 km/h 0.00 mm
19:44 9.8 °C 1012 mb 0 km/h 0.00 mm
19:34 9.9 °C 1012 mb 0 km/h 0.00 mm
19:24 10.2 °C 1012 mb 0 km/h 0.00 mm
19:14 10.9 °C 1012 mb 5 km/h 0.00 mm
19:04 11.5 °C 1012 mb 0 km/h 0.00 mm
18:54 11.7 °C 1012 mb 5 km/h 0.00 mm
18:44 12.2 °C 1012 mb 0 km/h 0.00 mm
18:34 12.2 °C 1011 mb 0 km/h 0.00 mm
18:24 12.2 °C 1011 mb 11 km/h 0.00 mm
18:14 12.6 °C 1011 mb 0 km/h 0.00 mm
18:04 13.1 °C 1011 mb 3 km/h 0.00 mm
17:54 13.1 °C 1011 mb 0 km/h 0.00 mm
17:44 13.3 °C 1011 mb 0 km/h 0.00 mm
17:34 13.6 °C 1011 mb 5 km/h 0.00 mm
17:24 13.7 °C 1011 mb 6 km/h 0.00 mm
17:14 13.8 °C 1011 mb 6 km/h 0.00 mm
17:04 14.1 °C 1011 mb 0 km/h 0.00 mm
16:54 14.4 °C 1011 mb 6 km/h 0.00 mm
16:44 15.0 °C 1011 mb 0 km/h 0.00 mm
16:34 15.3 °C 1011 mb 0 km/h 0.00 mm
16:24 15.7 °C 1011 mb 0 km/h 0.00 mm
16:14 15.7 °C 1011 mb 5 km/h 0.00 mm
16:04 15.3 °C 1011 mb 0 km/h 0.00 mm
15:54 15.1 °C 1011 mb 0 km/h 0.00 mm
15:44 15.3 °C 1011 mb 10 km/h 0.00 mm
15:34 15.5 °C 1011 mb 0 km/h 0.00 mm
15:24 15.2 °C 1011 mb 0 km/h 0.00 mm
15:14 15.1 °C 1011 mb 0 km/h 0.00 mm
15:04 14.8 °C 1011 mb 2 km/h 0.00 mm
14:54 14.8 °C 1011 mb 3 km/h 0.00 mm
14:44 14.8 °C 1011 mb 5 km/h 0.00 mm
14:34 14.7 °C 1011 mb 0 km/h 0.00 mm
14:24 14.5 °C 1011 mb 13 km/h 0.00 mm
14:14 14.5 °C 1011 mb 0 km/h 0.00 mm
14:04 14.2 °C 1011 mb 10 km/h 0.00 mm
13:54 14.1 °C 1012 mb 3 km/h 0.00 mm
13:44 14.0 °C 1012 mb 0 km/h 0.00 mm
13:34 13.7 °C 1012 mb 2 km/h 0.00 mm
13:24 13.8 °C 1012 mb 13 km/h 0.00 mm
13:14 13.4 °C 1012 mb 0 km/h 0.00 mm
13:04 13.0 °C 1012 mb 3 km/h 0.00 mm
12:54 12.8 °C 1012 mb 11 km/h 0.00 mm
12:44 12.8 °C 1013 mb 0 km/h 0.00 mm
12:34 12.3 °C 1013 mb 6 km/h 0.00 mm
12:24 12.1 °C 1013 mb 0 km/h 0.00 mm
12:14 11.9 °C 1013 mb 0 km/h 0.00 mm
12:04 11.4 °C 1013 mb 6 km/h 0.00 mm
11:54 11.8 °C 1014 mb 8 km/h 0.00 mm
11:44 11.6 °C 1014 mb 3 km/h 0.00 mm
11:34 11.7 °C 1014 mb 0 km/h 0.00 mm
11:24 11.3 °C 1014 mb 0 km/h 0.00 mm
11:14 10.7 °C 1014 mb 0 km/h 0.00 mm
11:04 10.1 °C 1014 mb 0 km/h 0.00 mm
10:54 9.7 °C 1014 mb 6 km/h 0.00 mm
10:44 9.3 °C 1014 mb 14 km/h 0.00 mm
10:34 9.1 °C 1014 mb 6 km/h 0.00 mm
10:24 9.0 °C 1014 mb 0 km/h 0.00 mm
10:14 8.4 °C 1014 mb 2 km/h 0.00 mm
10:04 8.0 °C 1014 mb 0 km/h 0.00 mm
09:54 7.8 °C 1014 mb 5 km/h 0.00 mm
09:44 7.6 °C 1015 mb 0 km/h 0.00 mm
09:34 7.2 °C 1014 mb 0 km/h 0.00 mm
09:24 6.3 °C 1014 mb 0 km/h 0.00 mm
09:14 5.7 °C 1014 mb 0 km/h 0.00 mm
09:04 5.4 °C 1014 mb 0 km/h 0.00 mm
08:54 5.3 °C 1014 mb 0 km/h 0.00 mm
08:44 5.3 °C 1014 mb 3 km/h 0.00 mm
08:34 5.0 °C 1014 mb 0 km/h 0.00 mm
08:24 5.1 °C 1014 mb 0 km/h 0.00 mm
08:14 4.9 °C 1014 mb 0 km/h 0.00 mm
08:04 5.0 °C 1014 mb 0 km/h 0.00 mm
07:54 5.2 °C 1014 mb 0 km/h 0.00 mm
07:44 5.1 °C 1014 mb 2 km/h 0.00 mm
07:34 5.1 °C 1014 mb 3 km/h 0.00 mm
07:24 5.3 °C 1013 mb 8 km/h 0.00 mm
07:14 5.6 °C 1013 mb 0 km/h 0.00 mm
07:04 5.7 °C 1013 mb 0 km/h 0.00 mm
06:54 5.9 °C 1013 mb 0 km/h 0.00 mm
06:44 6.4 °C 1013 mb 0 km/h 0.00 mm
06:34 6.0 °C 1013 mb 8 km/h 0.00 mm
06:24 6.0 °C 1013 mb 0 km/h 0.00 mm
06:14 6.4 °C 1013 mb 0 km/h 0.00 mm
06:04 6.9 °C 1013 mb 6 km/h 0.00 mm
05:54 6.7 °C 1013 mb 6 km/h 0.00 mm
05:44 6.8 °C 1013 mb 0 km/h 0.00 mm
05:34 7.1 °C 1013 mb 3 km/h 0.00 mm
05:24 7.2 °C 1013 mb 13 km/h 0.00 mm
05:14 7.2 °C 1013 mb 11 km/h 0.00 mm
05:04 6.9 °C 1013 mb 10 km/h 0.00 mm
04:54 6.9 °C 1013 mb 3 km/h 0.00 mm
04:44 7.2 °C 1013 mb 5 km/h 0.00 mm
04:34 7.2 °C 1013 mb 8 km/h 0.00 mm
04:24 7.3 °C 1013 mb 5 km/h 0.00 mm
04:14 7.3 °C 1013 mb 8 km/h 0.00 mm
04:04 7.4 °C 1013 mb 0 km/h 0.00 mm
03:54 7.4 °C 1013 mb 0 km/h 0.00 mm
03:44 7.4 °C 1013 mb 13 km/h 0.00 mm
03:34 7.4 °C 1014 mb 3 km/h 0.00 mm
03:24 7.5 °C 1014 mb 0 km/h 0.00 mm
03:14 7.6 °C 1014 mb 5 km/h 0.00 mm
03:04 7.6 °C 1014 mb 14 km/h 0.00 mm
02:54 7.6 °C 1014 mb 8 km/h 0.00 mm
02:44 7.7 °C 1014 mb 3 km/h 0.00 mm
02:34 7.6 °C 1014 mb 2 km/h 0.00 mm
02:24 7.7 °C 1013 mb 5 km/h 0.00 mm
02:14 7.7 °C 1013 mb 0 km/h 0.00 mm
02:04 7.7 °C 1013 mb 3 km/h 0.00 mm
01:54 7.8 °C 1013 mb 8 km/h 0.00 mm
01:44 7.9 °C 1013 mb 0 km/h 0.00 mm
01:34 8.0 °C 1014 mb 5 km/h 0.00 mm
01:24 8.1 °C 1013 mb 3 km/h 0.00 mm
01:14 8.3 °C 1014 mb 6 km/h 0.00 mm
01:04 8.3 °C 1013 mb 8 km/h 0.00 mm
00:54 8.4 °C 1013 mb 2 km/h 0.00 mm
00:44 8.6 °C 1014 mb 0 km/h 0.00 mm
00:34 8.7 °C 1014 mb 11 km/h 0.00 mm
00:24 8.7 °C 1013 mb 16 km/h 0.00 mm
00:14 8.8 °C 1013 mb 10 km/h 0.00 mm
00:04 8.9 °C 1013 mb 10 km/h 0.00 mm
Dia anterior | Dia siguente